Time,TemperatureF,DewpointF,PressureIn,WindDirection,WindDirectionDegrees,WindSpeedMPH,WindSpeedGustMPH,Humidity,HourlyPrecipIn,Conditions,Clouds,dailyrainin,SoftwareType,DateUTC
2013-04-20 00:01:00,61.9,61.5,29.92,NW,315,8.0,11.0,99,0.00,,,0.51,meteohub,2013-04-20 04:01:00,
2013-04-20 00:02:00,61.7,61.3,29.92,NW,315,7.0,11.0,99,0.00,,,0.51,meteohub,2013-04-20 04:02:00,
2013-04-20 00:03:00,61.5,61.2,29.92,West,270,9.0,11.0,99,0.00,,,0.51,meteohub,2013-04-20 04:03:00,
2013-04-20 00:06:00,61.2,60.8,29.93,NW,315,12.0,12.0,99,0.00,,,0.00,meteohub,2013-04-20 04:06:00,
2013-04-20 00:11:00,60.3,59.9,29.93,WNW,293,11.0,12.0,99,0.00,,,0.00,meteohub,2013-04-20 04:11:00,
2013-04-20 00:16:00,59.9,59.5,29.93,NW,315,5.0,12.0,99,0.00,,,0.00,meteohub,2013-04-20 04:16:00,
2013-04-20 00:21:00,59.5,59.2,29.93,NW,315,4.0,12.0,99,0.00,,,0.00,meteohub,2013-04-20 04:21:00,
2013-04-20 00:26:00,59.2,58.8,29.93,WNW,293,5.0,12.0,99,0.01,,,0.01,meteohub,2013-04-20 04:26:00,
2013-04-20 00:31:00,59.2,58.8,29.94,NW,315,8.0,8.0,99,0.01,,,0.01,meteohub,2013-04-20 04:31:00,
2013-04-20 00:36:00,59.0,58.6,29.94,NW,315,5.0,10.0,99,0.01,,,0.01,meteohub,2013-04-20 04:36:00,
2013-04-20 00:41:00,58.8,58.5,29.94,WNW,293,8.0,10.0,99,0.02,,,0.02,meteohub,2013-04-20 04:41:00,
2013-04-20 00:46:00,58.6,58.3,29.93,North,0,5.0,10.0,99,0.02,,,0.02,meteohub,2013-04-20 04:46:00,
2013-04-20 00:51:00,58.5,58.1,29.93,North,0,5.0,8.0,99,0.04,,,0.04,meteohub,2013-04-20 04:51:00,
2013-04-20 00:56:00,58.3,57.9,29.92,NW,315,6.0,8.0,99,0.05,,,0.05,meteohub,2013-04-20 04:56:00,
2013-04-20 01:01:00,58.1,57.7,29.92,NW,315,4.0,9.0,99,0.05,,,0.05,meteohub,2013-04-20 05:01:00,
2013-04-20 01:06:00,58.1,57.7,29.92,NW,315,7.0,9.0,99,0.06,,,0.06,meteohub,2013-04-20 05:06:00,
2013-04-20 01:11:00,57.9,57.6,29.91,North,0,3.0,9.0,99,0.06,,,0.06,meteohub,2013-04-20 05:11:00,
2013-04-20 01:16:00,57.9,57.6,29.91,WNW,293,4.0,7.0,99,0.06,,,0.06,meteohub,2013-04-20 05:16:00,
2013-04-20 01:22:00,57.9,57.6,29.92,NW,315,4.0,7.0,99,0.06,,,0.06,meteohub,2013-04-20 05:22:00,
2013-04-20 01:27:00,57.9,57.6,29.92,WNW,293,3.0,6.0,99,0.05,,,0.06,meteohub,2013-04-20 05:27:00,
2013-04-20 01:32:00,57.7,57.4,29.92,NW,315,5.0,5.0,99,0.05,,,0.06,meteohub,2013-04-20 05:32:00,
2013-04-20 01:37:00,57.4,57.0,29.92,NW,315,7.0,8.0,99,0.05,,,0.06,meteohub,2013-04-20 05:37:00,
2013-04-20 01:42:00,57.2,56.8,29.91,NW,315,3.0,8.0,99,0.04,,,0.06,meteohub,2013-04-20 05:42:00,
2013-04-20 01:47:00,57.0,56.7,29.91,North,0,4.0,8.0,99,0.02,,,0.06,meteohub,2013-04-20 05:47:00,
2013-04-20 01:52:00,57.0,56.7,29.91,NW,315,3.0,8.0,99,0.01,,,0.06,meteohub,2013-04-20 05:52:00,
2013-04-20 01:57:00,56.8,56.5,29.90,North,0,3.0,7.0,99,0.02,,,0.07,meteohub,2013-04-20 05:57:00,
2013-04-20 02:02:00,56.8,56.5,29.91,NW,315,4.0,7.0,99,0.01,,,0.07,meteohub,2013-04-20 06:02:00,
2013-04-20 02:07:00,56.7,56.3,29.93,NW,315,4.0,7.0,99,0.02,,,0.08,meteohub,2013-04-20 06:07:00,
2013-04-20 02:12:00,56.8,56.5,29.92,North,0,11.0,11.0,99,0.05,,,0.11,meteohub,2013-04-20 06:12:00,
2013-04-20 02:17:00,56.7,56.3,29.93,NNW,338,6.0,11.0,99,0.05,,,0.11,meteohub,2013-04-20 06:17:00,
2013-04-20 02:22:00,56.5,56.1,29.92,NNW,338,10.0,11.0,99,0.06,,,0.12,meteohub,2013-04-20 06:22:00,
2013-04-20 02:27:00,56.3,55.9,29.92,West,270,5.0,11.0,99,0.07,,,0.13,meteohub,2013-04-20 06:27:00,
2013-04-20 02:32:00,56.1,55.8,29.92,NNW,338,8.0,10.0,99,0.09,,,0.15,meteohub,2013-04-20 06:32:00,
2013-04-20 02:37:00,55.9,55.6,29.92,West,270,6.0,10.0,99,0.11,,,0.17,meteohub,2013-04-20 06:37:00,
2013-04-20 02:42:00,55.8,55.4,29.93,North,0,9.0,9.0,99,0.12,,,0.18,meteohub,2013-04-20 06:42:00,
2013-04-20 02:47:00,55.4,55.0,29.93,North,0,7.0,10.0,99,0.13,,,0.19,meteohub,2013-04-20 06:47:00,
2013-04-20 02:52:00,54.9,54.5,29.92,West,270,1.0,10.0,99,0.13,,,0.20,meteohub,2013-04-20 06:52:00,
2013-04-20 02:57:00,54.5,54.1,29.93,East,90,2.0,10.0,99,0.13,,,0.20,meteohub,2013-04-20 06:57:00,
2013-04-20 03:02:00,54.3,54.0,29.93,NW,315,3.0,7.0,99,0.12,,,0.20,meteohub,2013-04-20 07:02:00,
2013-04-20 03:07:00,54.0,53.6,29.93,NW,315,2.0,5.0,99,0.11,,,0.20,meteohub,2013-04-20 07:07:00,
2013-04-20 03:12:00,54.0,53.6,29.93,North,0,2.0,5.0,99,0.09,,,0.20,meteohub,2013-04-20 07:12:00,
2013-04-20 03:17:00,53.6,53.2,29.93,West,270,4.0,5.0,99,0.09,,,0.20,meteohub,2013-04-20 07:17:00,
2013-04-20 03:22:00,53.6,53.2,29.92,North,0,4.0,4.0,99,0.08,,,0.21,meteohub,2013-04-20 07:22:00,
2013-04-20 03:27:00,53.2,52.9,29.91,NW,315,7.0,8.0,99,0.07,,,0.21,meteohub,2013-04-20 07:27:00,
2013-04-20 03:32:00,53.1,52.7,29.92,NW,315,4.0,8.0,99,0.06,,,0.21,meteohub,2013-04-20 07:32:00,
2013-04-20 03:37:00,52.9,52.5,29.92,NW,315,4.0,8.0,99,0.05,,,0.21,meteohub,2013-04-20 07:37:00,
2013-04-20 03:42:00,52.7,52.3,29.92,NW,315,3.0,8.0,99,0.04,,,0.21,meteohub,2013-04-20 07:42:00,
2013-04-20 03:47:00,52.7,52.3,29.92,North,0,2.0,8.0,99,0.02,,,0.21,meteohub,2013-04-20 07:47:00,
2013-04-20 03:52:00,52.7,52.3,29.93,North,0,4.0,8.0,99,0.01,,,0.21,meteohub,2013-04-20 07:52:00,
2013-04-20 03:57:00,52.5,52.2,29.94,NW,315,4.0,7.0,99,0.02,,,0.22,meteohub,2013-04-20 07:57:00,
2013-04-20 04:02:00,52.5,52.2,29.94,NW,315,4.0,7.0,99,0.02,,,0.22,meteohub,2013-04-20 08:02:00,
2013-04-20 04:07:00,52.5,52.2,29.94,NE,45,2.0,8.0,99,0.02,,,0.22,meteohub,2013-04-20 08:07:00,
2013-04-20 04:12:00,52.3,52.0,29.93,North,0,4.0,8.0,99,0.02,,,0.22,meteohub,2013-04-20 08:12:00,
2013-04-20 04:17:00,52.3,52.0,29.92,NW,315,6.0,6.0,99,0.02,,,0.22,meteohub,2013-04-20 08:17:00,
2013-04-20 04:22:00,52.3,52.0,29.92,North,0,4.0,7.0,99,0.01,,,0.22,meteohub,2013-04-20 08:22:00,
2013-04-20 04:27:00,52.2,51.8,29.93,North,0,5.0,7.0,99,0.01,,,0.22,meteohub,2013-04-20 08:27:00,
2013-04-20 04:32:00,52.2,51.8,29.94,NW,315,3.0,7.0,99,0.02,,,0.24,meteohub,2013-04-20 08:32:00,
2013-04-20 04:37:00,52.3,52.0,29.94,North,0,4.0,6.0,99,0.04,,,0.25,meteohub,2013-04-20 08:37:00,
2013-04-20 04:42:00,52.3,52.0,29.94,West,270,3.0,6.0,99,0.04,,,0.25,meteohub,2013-04-20 08:42:00,
2013-04-20 04:47:00,52.5,52.2,29.95,North,0,4.0,7.0,99,0.05,,,0.26,meteohub,2013-04-20 08:47:00,
2013-04-20 04:52:00,52.5,52.2,29.95,NNW,338,3.0,8.0,99,0.05,,,0.27,meteohub,2013-04-20 08:52:00,
2013-04-20 04:57:00,52.5,52.2,29.95,West,270,4.0,8.0,99,0.05,,,0.27,meteohub,2013-04-20 08:57:00,
2013-04-20 05:02:00,52.2,51.8,29.95,NW,315,3.0,7.0,99,0.07,,,0.30,meteohub,2013-04-20 09:02:00,
2013-04-20 05:07:00,52.3,52.0,29.95,NNW,338,4.0,7.0,99,0.07,,,0.30,meteohub,2013-04-20 09:07:00,
2013-04-20 05:12:00,52.5,52.2,29.96,West,270,5.0,7.0,99,0.07,,,0.30,meteohub,2013-04-20 09:12:00,
2013-04-20 05:17:00,52.7,52.3,29.96,West,270,3.0,7.0,99,0.07,,,0.30,meteohub,2013-04-20 09:17:00,
2013-04-20 05:22:00,52.5,52.2,29.96,West,270,2.0,5.0,99,0.07,,,0.30,meteohub,2013-04-20 09:22:00,
2013-04-20 05:27:00,52.5,52.2,29.96,WNW,293,4.0,5.0,99,0.06,,,0.30,meteohub,2013-04-20 09:27:00,
2013-04-20 05:32:00,52.5,52.2,29.95,North,0,4.0,6.0,99,0.05,,,0.30,meteohub,2013-04-20 09:32:00,
2013-04-20 05:37:00,52.5,52.2,29.95,West,270,4.0,6.0,99,0.05,,,0.30,meteohub,2013-04-20 09:37:00,
2013-04-20 05:42:00,52.5,52.2,29.97,NW,315,5.0,6.0,99,0.05,,,0.30,meteohub,2013-04-20 09:42:00,
2013-04-20 05:47:00,52.5,52.2,29.97,NW,315,3.0,7.0,99,0.04,,,0.30,meteohub,2013-04-20 09:47:00,
2013-04-20 05:52:00,52.5,52.2,29.97,NW,315,2.0,7.0,99,0.02,,,0.30,meteohub,2013-04-20 09:52:00,
2013-04-20 05:57:00,52.5,52.2,29.97,WNW,293,6.0,7.0,99,0.02,,,0.30,meteohub,2013-04-20 09:57:00,
2013-04-20 06:02:00,52.3,52.0,29.97,NW,315,3.0,6.0,99,0.00,,,0.30,meteohub,2013-04-20 10:02:00,
2013-04-20 06:07:00,52.3,52.0,29.96,NNW,338,4.0,8.0,99,0.00,,,0.30,meteohub,2013-04-20 10:07:00,
2013-04-20 06:12:00,52.2,51.8,29.97,NW,315,4.0,8.0,99,0.00,,,0.30,meteohub,2013-04-20 10:12:00,
2013-04-20 06:17:00,52.2,51.8,29.97,NW,315,8.0,8.0,99,0.00,,,0.30,meteohub,2013-04-20 10:17:00,
2013-04-20 06:22:00,52.3,52.0,29.96,North,0,4.0,9.0,99,0.00,,,0.30,meteohub,2013-04-20 10:22:00,
2013-04-20 06:27:00,52.0,51.6,29.96,NW,315,6.0,9.0,99,0.00,,,0.30,meteohub,2013-04-20 10:27:00,
2013-04-20 06:32:00,51.8,51.4,29.97,North,0,7.0,9.0,99,0.00,,,0.30,meteohub,2013-04-20 10:32:00,
2013-04-20 06:37:00,51.8,51.4,29.97,NW,315,4.0,7.0,99,0.00,,,0.30,meteohub,2013-04-20 10:37:00,
2013-04-20 06:42:00,51.6,51.3,29.97,North,0,3.0,7.0,99,0.00,,,0.30,meteohub,2013-04-20 10:42:00,
2013-04-20 06:47:00,51.6,51.3,29.97,NW,315,4.0,8.0,99,0.00,,,0.30,meteohub,2013-04-20 10:47:00,
2013-04-20 06:52:00,51.6,51.3,29.97,North,0,2.0,8.0,99,0.00,,,0.30,meteohub,2013-04-20 10:52:00,
2013-04-20 06:57:00,51.4,51.1,29.97,North,0,4.0,8.0,99,0.00,,,0.30,meteohub,2013-04-20 10:57:00,
2013-04-20 07:02:00,51.4,51.1,29.97,North,0,6.0,7.0,99,0.01,,,0.31,meteohub,2013-04-20 11:02:00,
2013-04-20 07:07:00,51.4,51.1,29.98,NNW,338,6.0,9.0,99,0.04,,,0.33,meteohub,2013-04-20 11:07:00,
2013-04-20 07:12:00,51.3,50.9,29.98,North,0,6.0,9.0,99,0.04,,,0.33,meteohub,2013-04-20 11:12:00,
2013-04-20 07:17:00,51.3,50.9,29.99,NW,315,4.0,9.0,99,0.04,,,0.33,meteohub,2013-04-20 11:17:00,
2013-04-20 07:22:00,51.4,51.1,29.99,West,270,8.0,8.0,99,0.04,,,0.33,meteohub,2013-04-20 11:22:00,
2013-04-20 07:27:00,51.3,50.9,29.99,North,0,4.0,8.0,99,0.04,,,0.33,meteohub,2013-04-20 11:27:00,
2013-04-20 07:32:00,51.3,50.9,30.01,NNW,338,7.0,8.0,99,0.04,,,0.33,meteohub,2013-04-20 11:32:00,
2013-04-20 07:37:00,51.1,50.7,30.01,North,0,6.0,8.0,99,0.04,,,0.33,meteohub,2013-04-20 11:37:00,
2013-04-20 07:42:00,51.1,50.7,30.01,NW,315,5.0,8.0,99,0.04,,,0.33,meteohub,2013-04-20 11:42:00,
2013-04-20 07:47:00,51.1,50.7,30.01,North,0,4.0,8.0,99,0.04,,,0.33,meteohub,2013-04-20 11:47:00,
2013-04-20 07:52:00,51.1,50.7,30.01,North,0,4.0,8.0,99,0.04,,,0.33,meteohub,2013-04-20 11:52:00,
2013-04-20 07:57:00,51.1,50.7,30.00,NW,315,2.0,7.0,99,0.04,,,0.33,meteohub,2013-04-20 11:57:00,
2013-04-20 08:02:00,51.1,50.7,30.00,NE,45,3.0,7.0,99,0.01,,,0.33,meteohub,2013-04-20 12:02:00,
2013-04-20 08:07:00,50.9,50.5,30.00,North,0,4.0,7.0,99,0.00,,,0.33,meteohub,2013-04-20 12:07:00,
2013-04-20 08:12:00,50.9,50.5,30.00,NNW,338,4.0,7.0,99,0.00,,,0.33,meteohub,2013-04-20 12:12:00,
2013-04-20 08:17:00,50.9,50.5,30.01,SW,225,2.0,6.0,99,0.00,,,0.33,meteohub,2013-04-20 12:17:00,
2013-04-20 08:22:00,50.9,50.5,30.01,North,0,4.0,6.0,99,0.00,,,0.33,meteohub,2013-04-20 12:22:00,
2013-04-20 08:27:00,50.9,50.5,30.01,North,0,5.0,6.0,99,0.00,,,0.33,meteohub,2013-04-20 12:27:00,
2013-04-20 08:32:00,51.1,50.7,30.01,North,0,2.0,5.0,99,0.00,,,0.33,meteohub,2013-04-20 12:32:00,
2013-04-20 08:37:00,51.3,50.9,30.01,North,0,3.0,5.0,99,0.00,,,0.33,meteohub,2013-04-20 12:37:00,
2013-04-20 08:42:00,51.6,51.3,30.01,NW,315,3.0,5.0,99,0.00,,,0.33,meteohub,2013-04-20 12:42:00,
2013-04-20 08:47:00,51.8,51.4,30.01,NW,315,4.0,5.0,99,0.00,,,0.33,meteohub,2013-04-20 12:47:00,
2013-04-20 08:52:00,52.0,51.6,30.02,North,0,4.0,5.0,99,0.00,,,0.33,meteohub,2013-04-20 12:52:00,
2013-04-20 08:57:00,52.2,51.8,30.01,North,0,7.0,7.0,99,0.00,,,0.33,meteohub,2013-04-20 12:57:00,
2013-04-20 09:02:00,52.7,52.3,30.01,North,0,2.0,8.0,99,0.00,,,0.33,meteohub,2013-04-20 13:02:00,
2013-04-20 09:07:00,52.7,52.3,30.02,North,0,2.0,8.0,99,0.00,,,0.33,meteohub,2013-04-20 13:07:00,
2013-04-20 09:12:00,52.9,52.5,30.03,North,0,4.0,8.0,99,0.00,,,0.33,meteohub,2013-04-20 13:12:00,
2013-04-20 09:17:00,53.2,52.9,30.03,NW,315,4.0,7.0,99,0.00,,,0.33,meteohub,2013-04-20 13:17:00,
2013-04-20 09:22:00,53.2,52.9,30.03,North,0,5.0,6.0,99,0.00,,,0.33,meteohub,2013-04-20 13:22:00,
2013-04-20 09:27:00,53.4,53.1,30.04,North,0,3.0,6.0,99,0.00,,,0.33,meteohub,2013-04-20 13:27:00,
2013-04-20 09:32:00,53.4,53.1,30.04,NW,315,6.0,6.0,99,0.00,,,0.33,meteohub,2013-04-20 13:32:00,
2013-04-20 09:37:00,53.6,53.2,30.04,North,0,4.0,6.0,99,0.00,,,0.33,meteohub,2013-04-20 13:37:00,
2013-04-20 09:42:00,54.0,53.6,30.04,North,0,4.0,6.0,99,0.00,,,0.33,meteohub,2013-04-20 13:42:00,
2013-04-20 09:47:00,54.0,53.6,30.05,NW,315,4.0,6.0,99,0.00,,,0.33,meteohub,2013-04-20 13:47:00,
2013-04-20 09:52:00,54.3,54.0,30.05,NW,315,5.0,6.0,99,0.00,,,0.33,meteohub,2013-04-20 13:52:00,
2013-04-20 09:57:00,54.5,54.1,30.06,North,0,4.0,5.0,99,0.00,,,0.33,meteohub,2013-04-20 13:57:00,
2013-04-20 10:02:00,55.4,55.0,30.06,North,0,2.0,5.0,99,0.00,,,0.33,meteohub,2013-04-20 14:02:00,
2013-04-20 10:07:00,56.7,56.3,30.06,North,0,4.0,5.0,99,0.00,,,0.33,meteohub,2013-04-20 14:07:00,
2013-04-20 10:12:00,57.0,56.7,30.05,NW,315,4.0,5.0,99,0.00,,,0.33,meteohub,2013-04-20 14:12:00,
2013-04-20 10:17:00,56.5,56.1,30.06,North,0,6.0,6.0,99,0.00,,,0.33,meteohub,2013-04-20 14:17:00,
2013-04-20 10:22:00,56.1,55.8,30.06,North,0,4.0,7.0,99,0.00,,,0.33,meteohub,2013-04-20 14:22:00,
2013-04-20 10:27:00,56.3,55.9,30.06,North,0,4.0,7.0,99,0.00,,,0.33,meteohub,2013-04-20 14:27:00,
2013-04-20 10:32:00,57.2,56.8,30.06,North,0,4.0,6.0,99,0.00,,,0.33,meteohub,2013-04-20 14:32:00,
2013-04-20 10:37:00,57.9,57.6,30.06,East,90,4.0,5.0,99,0.00,,,0.33,meteohub,2013-04-20 14:37:00,
2013-04-20 10:42:00,58.5,58.1,30.06,SW,225,2.0,5.0,99,0.00,,,0.33,meteohub,2013-04-20 14:42:00,
2013-04-20 10:47:00,58.8,58.5,30.06,West,270,4.0,5.0,99,0.00,,,0.33,meteohub,2013-04-20 14:47:00,
2013-04-20 10:52:00,59.2,58.8,30.06,North,0,2.0,5.0,99,0.00,,,0.33,meteohub,2013-04-20 14:52:00,
2013-04-20 10:57:00,59.2,58.8,30.06,East,90,3.0,4.0,99,0.00,,,0.33,meteohub,2013-04-20 14:57:00,
2013-04-20 11:02:00,59.2,58.8,30.06,East,90,3.0,5.0,99,0.00,,,0.33,meteohub,2013-04-20 15:02:00,
2013-04-20 11:07:00,59.2,58.8,30.07,South,180,3.0,5.0,99,0.00,,,0.33,meteohub,2013-04-20 15:07:00,
2013-04-20 11:12:00,59.0,58.6,30.06,WNW,293,2.0,4.0,99,0.00,,,0.33,meteohub,2013-04-20 15:12:00,
2013-04-20 11:17:00,58.8,58.5,30.06,North,0,4.0,4.0,99,0.00,,,0.33,meteohub,2013-04-20 15:17:00,
2013-04-20 11:22:00,58.6,58.3,30.06,NNW,338,3.0,4.0,99,0.00,,,0.33,meteohub,2013-04-20 15:22:00,
2013-04-20 11:27:00,59.0,58.6,30.07,SE,135,4.0,4.0,99,0.00,,,0.33,meteohub,2013-04-20 15:27:00,
2013-04-20 11:32:00,59.5,59.2,30.07,NE,45,4.0,4.0,99,0.00,,,0.33,meteohub,2013-04-20 15:32:00,
2013-04-20 11:37:00,59.7,59.2,30.07,South,180,3.0,4.0,98,0.00,,,0.33,meteohub,2013-04-20 15:37:00,
2013-04-20 11:42:00,59.7,58.8,30.07,NW,315,4.0,5.0,97,0.00,,,0.33,meteohub,2013-04-20 15:42:00,
2013-04-20 11:48:00,59.7,58.8,30.07,NW,315,4.0,5.0,97,0.00,,,0.33,meteohub,2013-04-20 15:48:00,
2013-04-20 11:53:00,59.7,58.8,30.07,SW,225,3.0,5.0,97,0.00,,,0.33,meteohub,2013-04-20 15:53:00,
2013-04-20 11:58:00,59.9,59.0,30.08,NNW,338,4.0,5.0,97,0.00,,,0.33,meteohub,2013-04-20 15:58:00,
2013-04-20 12:03:00,60.4,59.9,30.08,NW,315,3.0,5.0,98,0.00,,,0.33,meteohub,2013-04-20 16:03:00,
2013-04-20 12:08:00,60.6,59.5,30.08,NW,315,2.0,5.0,96,0.00,,,0.33,meteohub,2013-04-20 16:08:00,
2013-04-20 12:13:00,61.0,59.5,30.08,NW,315,2.0,6.0,95,0.00,,,0.33,meteohub,2013-04-20 16:13:00,
2013-04-20 12:18:00,61.9,61.0,30.08,NNW,338,4.0,6.0,97,0.00,,,0.33,meteohub,2013-04-20 16:18:00,
2013-04-20 12:23:00,62.2,60.3,30.08,East,90,7.0,7.0,93,0.00,,,0.33,meteohub,2013-04-20 16:23:00,
2013-04-20 12:28:00,61.7,59.7,30.07,SE,135,5.0,7.0,93,0.00,,,0.33,meteohub,2013-04-20 16:28:00,
2013-04-20 12:33:00,61.5,60.4,30.07,SE,135,6.0,7.0,96,0.00,,,0.33,meteohub,2013-04-20 16:33:00,
2013-04-20 12:38:00,61.5,59.7,30.07,WSW,248,4.0,8.0,94,0.00,,,0.33,meteohub,2013-04-20 16:38:00,
2013-04-20 12:44:00,61.7,59.4,30.07,SE,135,3.0,8.0,92,0.00,,,0.33,meteohub,2013-04-20 16:44:00,
2013-04-20 12:49:00,62.4,61.3,30.06,SE,135,2.0,8.0,96,0.00,,,0.33,meteohub,2013-04-20 16:49:00,
2013-04-20 12:54:00,63.7,61.3,30.06,WNW,293,4.0,7.0,92,0.00,,,0.33,meteohub,2013-04-20 16:54:00,
2013-04-20 12:59:00,64.0,61.7,30.06,West,270,3.0,5.0,92,0.00,,,0.33,meteohub,2013-04-20 16:59:00,
2013-04-20 13:04:00,64.0,60.4,30.06,North,0,5.0,5.0,88,0.00,,,0.33,meteohub,2013-04-20 17:04:00,
2013-04-20 13:09:00,63.5,60.4,30.06,North,0,4.0,6.0,90,0.00,,,0.33,meteohub,2013-04-20 17:09:00,
2013-04-20 13:14:00,63.5,60.8,30.06,SW,225,2.0,6.0,91,0.00,,,0.33,meteohub,2013-04-20 17:14:00,
2013-04-20 13:19:00,63.9,61.2,30.07,East,90,4.0,6.0,91,0.00,,,0.33,meteohub,2013-04-20 17:19:00,
2013-04-20 13:24:00,63.9,60.6,30.06,South,180,4.0,4.0,89,0.00,,,0.33,meteohub,2013-04-20 17:24:00,
2013-04-20 13:29:00,64.0,61.3,30.06,East,90,2.0,5.0,91,0.00,,,0.33,meteohub,2013-04-20 17:29:00,
2013-04-20 13:34:00,63.5,60.3,30.06,East,90,3.0,5.0,89,0.00,,,0.33,meteohub,2013-04-20 17:34:00,
2013-04-20 13:39:00,63.3,60.3,30.06,SSW,203,2.0,5.0,90,0.00,,,0.33,meteohub,2013-04-20 17:39:00,
2013-04-20 13:44:00,63.1,59.9,30.06,SE,135,3.0,6.0,89,0.00,,,0.33,meteohub,2013-04-20 17:44:00,
2013-04-20 13:49:00,62.8,60.1,30.06,NW,315,3.0,6.0,91,0.00,,,0.33,meteohub,2013-04-20 17:49:00,
2013-04-20 13:54:00,62.6,59.9,30.06,NW,315,2.0,6.0,91,0.00,,,0.33,meteohub,2013-04-20 17:54:00,
2013-04-20 13:59:00,62.4,59.7,30.06,SW,225,2.0,5.0,91,0.00,,,0.33,meteohub,2013-04-20 17:59:00,
2013-04-20 14:04:00,62.4,60.1,30.07,SSW,203,2.0,5.0,92,0.00,,,0.33,meteohub,2013-04-20 18:04:00,
2013-04-20 14:10:00,62.6,59.9,30.07,NW,315,3.0,4.0,91,0.00,,,0.33,meteohub,2013-04-20 18:10:00,
2013-04-20 14:15:00,63.0,60.3,30.07,SE,135,3.0,4.0,91,0.00,,,0.33,meteohub,2013-04-20 18:15:00,
2013-04-20 14:20:00,63.0,60.6,30.08,ESE,113,4.0,4.0,92,0.00,,,0.33,meteohub,2013-04-20 18:20:00,
2013-04-20 14:25:00,63.3,60.6,30.07,WNW,293,2.0,4.0,91,0.00,,,0.33,meteohub,2013-04-20 18:25:00,
2013-04-20 14:30:00,63.5,60.3,30.07,SW,225,2.0,4.0,89,0.00,,,0.33,meteohub,2013-04-20 18:30:00,
2013-04-20 14:35:00,63.9,60.6,30.07,SE,135,4.0,4.0,89,0.00,,,0.33,meteohub,2013-04-20 18:35:00,
2013-04-20 14:40:00,64.0,60.8,30.07,North,0,3.0,4.0,89,0.00,,,0.33,meteohub,2013-04-20 18:40:00,
2013-04-20 14:45:00,64.2,60.3,30.07,SW,225,4.0,4.0,87,0.00,,,0.33,meteohub,2013-04-20 18:45:00,
2013-04-20 14:50:00,64.4,61.2,30.06,SSE,158,2.0,4.0,89,0.01,,,0.34,meteohub,2013-04-20 18:50:00,
2013-04-20 14:55:00,64.6,60.6,30.06,West,270,3.0,4.0,87,0.01,,,0.34,meteohub,2013-04-20 18:55:00,
2013-04-20 15:00:00,64.6,60.6,30.07,WNW,293,3.0,4.0,87,0.01,,,0.34,meteohub,2013-04-20 19:00:00,
2013-04-20 15:05:00,64.6,60.6,30.07,SE,135,2.0,4.0,87,0.01,,,0.34,meteohub,2013-04-20 19:05:00,
2013-04-20 15:10:00,65.3,61.0,30.07,NW,315,5.0,5.0,86,0.01,,,0.34,meteohub,2013-04-20 19:10:00,
2013-04-20 15:15:00,65.7,61.0,30.06,NW,315,2.0,5.0,85,0.01,,,0.34,meteohub,2013-04-20 19:15:00,
2013-04-20 15:20:00,65.7,61.3,30.06,WNW,293,3.0,5.0,86,0.01,,,0.34,meteohub,2013-04-20 19:20:00,
2013-04-20 15:25:00,65.5,59.9,30.06,North,0,4.0,5.0,82,0.01,,,0.34,meteohub,2013-04-20 19:25:00,
2013-04-20 15:30:00,65.7,60.6,30.05,WNW,293,2.0,5.0,84,0.01,,,0.34,meteohub,2013-04-20 19:30:00,
2013-04-20 15:35:00,67.1,61.2,30.05,ENE,68,6.0,6.0,81,0.01,,,0.34,meteohub,2013-04-20 19:35:00,
2013-04-20 15:41:00,67.6,63.0,30.05,North,0,3.0,7.0,85,0.01,,,0.34,meteohub,2013-04-20 19:41:00,
2013-04-20 15:46:00,68.7,61.5,30.05,NW,315,2.0,7.0,78,0.01,,,0.34,meteohub,2013-04-20 19:46:00,
2013-04-20 15:51:00,69.1,60.8,30.05,NW,315,4.0,7.0,75,0.00,,,0.34,meteohub,2013-04-20 19:51:00,
2013-04-20 15:56:00,70.2,61.9,30.06,North,0,3.0,5.0,75,0.00,,,0.34,meteohub,2013-04-20 19:56:00,
2013-04-20 16:01:00,70.2,62.6,30.05,SE,135,2.0,4.0,77,0.00,,,0.34,meteohub,2013-04-20 20:01:00,
2013-04-20 16:06:00,70.0,63.1,30.05,North,0,2.0,6.0,79,0.00,,,0.34,meteohub,2013-04-20 20:06:00,
2013-04-20 16:11:00,69.6,61.3,30.06,West,270,3.0,6.0,75,0.00,,,0.34,meteohub,2013-04-20 20:11:00,
2013-04-20 16:16:00,68.7,60.8,30.06,South,180,3.0,6.0,76,0.00,,,0.34,meteohub,2013-04-20 20:16:00,
2013-04-20 16:21:00,68.5,62.1,30.05,NNW,338,4.0,5.0,80,0.00,,,0.34,meteohub,2013-04-20 20:21:00,
2013-04-20 16:26:00,68.4,60.4,30.04,North,0,3.0,5.0,76,0.00,,,0.34,meteohub,2013-04-20 20:26:00,
2013-04-20 16:31:00,68.5,60.6,30.04,SE,135,3.0,5.0,76,0.00,,,0.34,meteohub,2013-04-20 20:31:00,
2013-04-20 16:36:00,68.2,61.0,30.05,North,0,2.0,5.0,78,0.00,,,0.34,meteohub,2013-04-20 20:36:00,
2013-04-20 16:41:00,67.5,60.8,30.05,SW,225,1.0,4.0,79,0.00,,,0.34,meteohub,2013-04-20 20:41:00,
2013-04-20 16:46:00,66.9,60.6,30.05,North,0,2.0,4.0,80,0.00,,,0.34,meteohub,2013-04-20 20:46:00,
2013-04-20 16:51:00,66.7,61.7,30.05,SE,135,3.0,4.0,84,0.00,,,0.34,meteohub,2013-04-20 20:51:00,
2013-04-20 16:56:00,66.0,60.4,30.06,SSE,158,2.0,4.0,82,0.00,,,0.34,meteohub,2013-04-20 20:56:00,
2013-04-20 17:01:00,66.2,60.6,30.06,SE,135,2.0,4.0,82,0.00,,,0.34,meteohub,2013-04-20 21:01:00,
2013-04-20 17:06:00,66.0,60.6,30.06,SE,135,3.0,4.0,83,0.00,,,0.34,meteohub,2013-04-20 21:06:00,
2013-04-20 17:11:00,65.3,59.0,30.06,SE,135,1.0,4.0,80,0.00,,,0.34,meteohub,2013-04-20 21:11:00,
2013-04-20 17:17:00,65.3,61.0,30.05,SE,135,3.0,4.0,86,0.00,,,0.34,meteohub,2013-04-20 21:17:00,
2013-04-20 17:22:00,65.1,60.8,30.05,SE,135,2.0,4.0,86,0.00,,,0.34,meteohub,2013-04-20 21:22:00,
2013-04-20 17:27:00,64.9,61.0,30.05,SW,225,2.0,4.0,87,0.00,,,0.34,meteohub,2013-04-20 21:27:00,
2013-04-20 17:32:00,65.7,59.7,30.05,West,270,2.0,4.0,81,0.00,,,0.34,meteohub,2013-04-20 21:32:00,
2013-04-20 17:37:00,65.7,59.4,30.05,SE,135,1.0,4.0,80,0.00,,,0.34,meteohub,2013-04-20 21:37:00,
2013-04-20 17:42:00,65.3,59.7,30.05,SE,135,3.0,3.0,82,0.00,,,0.34,meteohub,2013-04-20 21:42:00,
2013-04-20 17:47:00,64.8,59.5,30.06,SE,135,2.0,4.0,83,0.00,,,0.34,meteohub,2013-04-20 21:47:00,
2013-04-20 17:52:00,64.2,59.5,30.06,East,90,2.0,4.0,85,0.00,,,0.34,meteohub,2013-04-20 21:52:00,
2013-04-20 17:57:00,64.2,60.6,30.06,South,180,2.0,4.0,88,0.00,,,0.34,meteohub,2013-04-20 21:57:00,
2013-04-20 18:02:00,64.4,61.2,30.06,ESE,113,4.0,4.0,89,0.00,,,0.34,meteohub,2013-04-20 22:02:00,
2013-04-20 18:07:00,65.7,61.7,30.06,SE,135,4.0,4.0,87,0.00,,,0.34,meteohub,2013-04-20 22:07:00,
2013-04-20 18:12:00,67.3,61.9,30.06,East,90,4.0,4.0,83,0.00,,,0.34,meteohub,2013-04-20 22:12:00,
2013-04-20 18:17:00,67.8,61.3,30.06,East,90,4.0,4.0,80,0.00,,,0.34,meteohub,2013-04-20 22:17:00,
2013-04-20 18:22:00,68.9,62.1,30.06,SE,135,4.0,4.0,79,0.00,,,0.34,meteohub,2013-04-20 22:22:00,
2013-04-20 18:27:00,70.3,62.4,30.06,SE,135,4.0,6.0,76,0.00,,,0.34,meteohub,2013-04-20 22:27:00,
2013-04-20 18:32:00,70.9,61.9,30.06,South,180,2.0,6.0,73,0.00,,,0.34,meteohub,2013-04-20 22:32:00,
2013-04-20 18:37:00,71.1,62.4,30.06,SE,135,4.0,6.0,74,0.00,,,0.34,meteohub,2013-04-20 22:37:00,
2013-04-20 18:42:00,70.2,61.5,30.06,SE,135,4.0,5.0,74,0.00,,,0.34,meteohub,2013-04-20 22:42:00,
2013-04-20 18:47:00,69.3,60.6,30.06,SE,135,4.0,6.0,74,0.00,,,0.34,meteohub,2013-04-20 22:47:00,
2013-04-20 18:52:00,69.1,60.8,30.06,East,90,4.0,6.0,75,0.00,,,0.34,meteohub,2013-04-20 22:52:00,
2013-04-20 18:57:00,68.2,59.5,30.06,ESE,113,3.0,6.0,74,0.00,,,0.34,meteohub,2013-04-20 22:57:00,
2013-04-20 19:02:00,67.6,60.6,30.06,SE,135,2.0,4.0,78,0.00,,,0.34,meteohub,2013-04-20 23:02:00,
2013-04-20 19:07:00,67.6,60.3,30.06,ESE,113,3.0,4.0,77,0.00,,,0.34,meteohub,2013-04-20 23:07:00,
2013-04-20 19:12:00,67.5,60.8,30.07,SE,135,3.0,4.0,79,0.00,,,0.34,meteohub,2013-04-20 23:12:00,
2013-04-20 19:17:00,66.7,60.4,30.06,SE,135,2.0,4.0,80,0.00,,,0.34,meteohub,2013-04-20 23:17:00,
2013-04-20 19:22:00,66.6,61.2,30.07,SE,135,2.0,4.0,83,0.00,,,0.34,meteohub,2013-04-20 23:22:00,
2013-04-20 19:27:00,65.8,60.8,30.07,South,180,1.0,4.0,84,0.00,,,0.34,meteohub,2013-04-20 23:27:00,
2013-04-20 19:32:00,64.9,61.3,30.07,South,180,1.0,3.0,88,0.00,,,0.34,meteohub,2013-04-20 23:32:00,
2013-04-20 19:37:00,63.5,60.3,30.07,South,180,1.0,3.0,89,0.00,,,0.34,meteohub,2013-04-20 23:37:00,
2013-04-20 19:42:00,61.9,59.0,30.07,South,180,0.0,2.0,90,0.00,,,0.34,meteohub,2013-04-20 23:42:00,
2013-04-20 19:47:00,60.4,57.7,30.08,South,180,0.0,1.0,91,0.00,,,0.34,meteohub,2013-04-20 23:47:00,
2013-04-20 19:52:00,59.5,57.6,30.08,South,180,0.0,1.0,93,0.00,,,0.34,meteohub,2013-04-20 23:52:00,
2013-04-20 19:57:00,58.5,57.0,30.08,South,180,0.0,0.0,95,0.00,,,0.34,meteohub,2013-04-20 23:57:00,
2013-04-20 20:02:00,57.6,57.0,30.09,South,180,0.0,0.0,98,0.00,,,0.34,meteohub,2013-04-21 00:02:00,
2013-04-20 20:07:00,56.7,56.3,30.09,South,180,0.0,0.0,99,0.00,,,0.34,meteohub,2013-04-21 00:07:00,
2013-04-20 20:12:00,55.9,55.6,30.09,South,180,0.0,0.0,99,0.00,,,0.34,meteohub,2013-04-21 00:12:00,
2013-04-20 20:17:00,55.4,55.0,30.09,South,180,0.0,0.0,99,0.00,,,0.34,meteohub,2013-04-21 00:17:00,
2013-04-20 20:22:00,55.0,54.7,30.09,South,180,0.0,0.0,99,0.00,,,0.34,meteohub,2013-04-21 00:22:00,
2013-04-20 20:27:00,54.7,54.3,30.10,South,180,0.0,0.0,99,0.00,,,0.34,meteohub,2013-04-21 00:27:00,
2013-04-20 20:32:00,54.3,54.0,30.10,South,180,0.0,1.0,99,0.00,,,0.34,meteohub,2013-04-21 00:32:00,
2013-04-20 20:37:00,54.1,53.8,30.11,South,180,0.0,1.0,99,0.00,,,0.34,meteohub,2013-04-21 00:37:00,
2013-04-20 20:42:00,53.8,53.4,30.11,South,180,0.0,1.0,99,0.00,,,0.34,meteohub,2013-04-21 00:42:00,
2013-04-20 20:47:00,53.6,53.2,30.12,South,180,0.0,0.0,99,0.00,,,0.34,meteohub,2013-04-21 00:47:00,
2013-04-20 20:52:00,53.4,53.1,30.11,South,180,0.0,0.0,99,0.00,,,0.34,meteohub,2013-04-21 00:52:00,
2013-04-20 20:57:00,53.2,52.9,30.12,South,180,0.0,0.0,99,0.00,,,0.34,meteohub,2013-04-21 00:57:00,
2013-04-20 21:02:00,52.9,52.5,30.12,South,180,0.0,0.0,99,0.00,,,0.34,meteohub,2013-04-21 01:02:00,
2013-04-20 21:07:00,52.9,52.5,30.12,South,180,0.0,0.0,99,0.00,,,0.34,meteohub,2013-04-21 01:07:00,
2013-04-20 21:12:00,52.5,52.2,30.12,South,180,0.0,0.0,99,0.00,,,0.34,meteohub,2013-04-21 01:12:00,
2013-04-20 21:17:00,52.5,52.2,30.13,South,180,0.0,0.0,99,0.00,,,0.34,meteohub,2013-04-21 01:17:00,
2013-04-20 21:22:00,52.3,52.0,30.13,South,180,0.0,0.0,99,0.00,,,0.34,meteohub,2013-04-21 01:22:00,
2013-04-20 21:27:00,52.3,52.0,30.13,South,180,0.0,0.0,99,0.00,,,0.34,meteohub,2013-04-21 01:27:00,
2013-04-20 21:32:00,52.2,51.8,30.13,South,180,0.0,0.0,99,0.00,,,0.34,meteohub,2013-04-21 01:32:00,
2013-04-20 21:37:00,52.0,51.6,30.14,South,180,0.0,0.0,99,0.00,,,0.34,meteohub,2013-04-21 01:37:00,
2013-04-20 21:42:00,52.0,51.6,30.14,South,180,0.0,0.0,99,0.00,,,0.34,meteohub,2013-04-21 01:42:00,
2013-04-20 21:47:00,51.8,51.4,30.14,South,180,0.0,0.0,99,0.00,,,0.34,meteohub,2013-04-21 01:47:00,
2013-04-20 21:52:00,51.6,51.3,30.14,South,180,0.0,0.0,99,0.00,,,0.34,meteohub,2013-04-21 01:52:00,
2013-04-20 21:57:00,51.4,51.1,30.14,South,180,0.0,0.0,99,0.00,,,0.34,meteohub,2013-04-21 01:57:00,
2013-04-20 22:02:00,51.6,51.3,30.14,South,180,0.0,0.0,99,0.00,,,0.34,meteohub,2013-04-21 02:02:00,
2013-04-20 22:07:00,51.4,51.1,30.14,South,180,0.0,0.0,99,0.00,,,0.34,meteohub,2013-04-21 02:07:00,
2013-04-20 22:12:00,51.1,50.7,30.15,South,180,0.0,0.0,99,0.00,,,0.34,meteohub,2013-04-21 02:12:00,
2013-04-20 22:17:00,51.1,50.7,30.14,South,180,0.0,0.0,99,0.00,,,0.34,meteohub,2013-04-21 02:17:00,
2013-04-20 22:22:00,51.1,50.7,30.15,NW,315,1.0,0.0,99,0.00,,,0.34,meteohub,2013-04-21 02:22:00,
2013-04-20 22:27:00,51.1,50.7,30.15,NW,315,0.0,1.0,99,0.00,,,0.34,meteohub,2013-04-21 02:27:00,
2013-04-20 22:32:00,50.9,50.5,30.15,NW,315,0.0,1.0,99,0.00,,,0.34,meteohub,2013-04-21 02:32:00,
2013-04-20 22:37:00,50.7,50.4,30.15,NW,315,0.0,1.0,99,0.00,,,0.34,meteohub,2013-04-21 02:37:00,
2013-04-20 22:42:00,50.5,50.2,30.14,NW,315,0.0,0.0,99,0.00,,,0.34,meteohub,2013-04-21 02:42:00,
2013-04-20 22:47:00,50.4,50.0,30.15,NW,315,0.0,0.0,99,0.00,,,0.34,meteohub,2013-04-21 02:47:00,
2013-04-20 22:52:00,50.4,50.0,30.15,NW,315,0.0,0.0,99,0.00,,,0.34,meteohub,2013-04-21 02:52:00,
2013-04-20 22:57:00,50.2,49.8,30.14,NW,315,0.0,0.0,99,0.00,,,0.34,meteohub,2013-04-21 02:57:00,
2013-04-20 23:02:00,50.2,49.8,30.14,NW,315,0.0,0.0,99,0.00,,,0.34,meteohub,2013-04-21 03:02:00,
2013-04-20 23:08:00,50.0,49.6,30.14,NW,315,0.0,0.0,99,0.00,,,0.34,meteohub,2013-04-21 03:08:00,
2013-04-20 23:13:00,50.0,49.6,30.14,NW,315,0.0,0.0,99,0.00,,,0.34,meteohub,2013-04-21 03:13:00,
2013-04-20 23:18:00,49.8,49.5,30.15,NW,315,0.0,0.0,99,0.00,,,0.34,meteohub,2013-04-21 03:18:00,
2013-04-20 23:23:00,49.6,49.5,30.15,NW,315,0.0,0.0,99,0.00,,,0.34,meteohub,2013-04-21 03:23:00,
2013-04-20 23:28:00,49.6,49.5,30.15,NW,315,0.0,0.0,99,0.00,,,0.34,meteohub,2013-04-21 03:28:00,
2013-04-20 23:33:00,49.5,49.3,30.15,NW,315,0.0,0.0,99,0.00,,,0.34,meteohub,2013-04-21 03:33:00,
2013-04-20 23:38:00,49.5,49.3,30.15,NW,315,0.0,0.0,99,0.00,,,0.34,meteohub,2013-04-21 03:38:00,
2013-04-20 23:43:00,49.3,49.1,30.15,NW,315,0.0,0.0,99,0.00,,,0.34,meteohub,2013-04-21 03:43:00,
2013-04-20 23:48:00,49.1,48.9,30.16,NW,315,0.0,0.0,99,0.00,,,0.34,meteohub,2013-04-21 03:48:00,
2013-04-20 23:53:00,49.1,48.9,30.16,NW,315,0.0,0.0,99,0.00,,,0.34,meteohub,2013-04-21 03:53:00,
2013-04-20 23:58:00,48.9,48.7,30.16,North,0,0.0,0.0,99,0.00,,,0.34,meteohub,2013-04-21 03:58:00,